26 | 02 | 2021

Klimadaten

Klimadaten von der Klimastation Reinstorf   

Datum Zeit Temp.Außen Temp.min Temp.max Temp.2cm Temp.5cm Temp. 10cm Temp. 50cm Feuchte A. BlattFeu 1 Bod.Feucht 1 Luftdruck Regen Wind Richtung Richtung Sonnenschein Zeit Regen ET UV Solar Taupunkt Windchill Windböen
25.02.21 00:00:00 7,3 °C 7,3 °C 8,5 °C 6,1 °C 6,7 °C 7,2 °C 6,7 °C 89,00% 4 lf 69 cb 1026,9 hPa 0,0 l/m˛ 3,2 km/h (1 Bft) SO 135 ° 0 min 0 min 0,000 mm 0,0 UV-I 0 W/m˛ 5,6 °C 7,3 °C 8,0 km/h (2 Bft)
25.02.21 00:30:00 8,1 °C 7,2 °C 8,1 °C 6,7 °C 6,7 °C 7,2 °C 6,7 °C 93,00% 12 lf 70 cb 1026,9 hPa 0,0 l/m˛ 6,4 km/h (2 Bft) S-SO 157 ° 0 min 0 min 0,000 mm 0,0 UV-I 0 W/m˛ 7,0 °C 7,2 °C 9,7 km/h (2 Bft)
25.02.21 01:00:00 6,9 °C 6,9 °C 8,3 °C 5,6 °C 6,7 °C 6,7 °C 6,7 °C 89,00% 12 lf 69 cb 1026,7 hPa 0,0 l/m˛ 3,2 km/h (1 Bft) S-SO 157 ° 0 min 0 min 0,000 mm 0,0 UV-I 0 W/m˛ 5,2 °C 6,9 °C 9,7 km/h (2 Bft)
25.02.21 01:30:00 4,9 °C 4,9 °C 6,9 °C 5,6 °C 6,1 °C 6,7 °C 6,7 °C 91,00% 14 lf 69 cb 1026,7 hPa 0,0 l/m˛ 1,6 km/h (1 Bft) S-SO 157 ° 0 min 0 min 0,000 mm 0,0 UV-I 0 W/m˛ 3,6 °C 4,9 °C 6,4 km/h (2 Bft)
25.02.21 02:00:00 6,2 °C 4,7 °C 6,2 °C 5,6 °C 6,1 °C 6,1 °C 6,7 °C 95,00% 15 lf 70 cb 1026,5 hPa 0,0 l/m˛ 4,8 km/h (1 Bft) S-SO 157 ° 0 min 0 min 0,000 mm 0,0 UV-I 0 W/m˛ 5,5 °C 4,7 °C 9,7 km/h (2 Bft)
25.02.21 02:30:00 7,8 °C 6,2 °C 7,8 °C 6,1 °C 5,6 °C 6,1 °C 6,7 °C 94,00% 15 lf 71 cb 1026,2 hPa 0,0 l/m˛ 6,4 km/h (2 Bft) S 180 ° 0 min 0 min 0,000 mm 0,0 UV-I 0 W/m˛ 6,9 °C 6,2 °C 11,3 km/h (2 Bft)
25.02.21 03:00:00 8,1 °C 7,8 °C 8,1 °C 6,1 °C 6,1 °C 6,1 °C 6,7 °C 94,00% 15 lf 69 cb 1025,9 hPa 0,0 l/m˛ 6,4 km/h (2 Bft) S 180 ° 0 min 0 min 0,000 mm 0,0 UV-I 0 W/m˛ 7,2 °C 7,8 °C 11,3 km/h (2 Bft)
25.02.21 03:30:00 8,0 °C 8,0 °C 8,2 °C 6,1 °C 5,6 °C 6,1 °C 6,7 °C 93,00% 15 lf 70 cb 1025,8 hPa 0,0 l/m˛ 4,8 km/h (1 Bft) S 180 ° 0 min 0 min 0,000 mm 0,0 UV-I 0 W/m˛ 6,9 °C 8,0 °C 9,7 km/h (2 Bft)
25.02.21 04:00:00 7,9 °C 7,8 °C 8,0 °C 6,1 °C 5,6 °C 6,1 °C 6,7 °C 93,00% 15 lf 70 cb 1025,6 hPa 0,0 l/m˛ 4,8 km/h (1 Bft) S 180 ° 0 min 0 min 0,000 mm 0,0 UV-I 0 W/m˛ 6,8 °C 7,8 °C 11,3 km/h (2 Bft)
25.02.21 04:30:00 8,2 °C 7,9 °C 8,3 °C 6,1 °C 5,6 °C 6,1 °C 6,1 °C 93,00% 15 lf 70 cb 1025,5 hPa 0,0 l/m˛ 4,8 km/h (1 Bft) S 180 ° 0 min 0 min 0,000 mm 0,0 UV-I 0 W/m˛ 7,1 °C 7,9 °C 11,3 km/h (2 Bft)
25.02.21 05:00:00 7,8 °C 7,8 °C 8,2 °C 5,6 °C 5,6 °C 6,1 °C 6,1 °C 93,00% 15 lf 72 cb 1025,6 hPa 0,0 l/m˛ 4,8 km/h (1 Bft) S 180 ° 0 min 0 min 0,000 mm 0,0 UV-I 0 W/m˛ 6,7 °C 7,8 °C 11,3 km/h (2 Bft)
25.02.21 05:30:00 7,4 °C 7,4 °C 7,8 °C 5,6 °C 5,6 °C 5,6 °C 6,1 °C 93,00% 15 lf 72 cb 1025,4 hPa 0,0 l/m˛ 6,4 km/h (2 Bft) S 180 ° 0 min 0 min 0,000 mm 0,0 UV-I 0 W/m˛ 6,3 °C 7,4 °C 11,3 km/h (2 Bft)
25.02.21 06:00:00 6,7 °C 6,7 °C 7,4 °C 5,0 °C 5,6 °C 5,6 °C 6,1 °C 93,00% 15 lf 72 cb 1025,1 hPa 0,0 l/m˛ 3,2 km/h (1 Bft) S-SO 157 ° 0 min 0 min 0,000 mm 0,0 UV-I 0 W/m˛ 5,6 °C 6,7 °C 8,0 km/h (2 Bft)
25.02.21 06:30:00 5,7 °C 5,7 °C 6,7 °C 5,0 °C 5,0 °C 5,6 °C 6,1 °C 93,00% 15 lf 72 cb 1025,1 hPa 0,0 l/m˛ 3,2 km/h (1 Bft) S-SO 157 ° 0 min 0 min 0,000 mm 0,0 UV-I 0 W/m˛ 4,7 °C 5,7 °C 6,4 km/h (2 Bft)
25.02.21 07:00:00 6,7 °C 5,7 °C 6,7 °C 5,6 °C 5,0 °C 5,6 °C 6,1 °C 95,00% 15 lf 71 cb 1024,9 hPa 0,0 l/m˛ 4,8 km/h (1 Bft) S 180 ° 0 min 0 min 0,000 mm 0,0 UV-I 0 W/m˛ 6,0 °C 5,7 °C 11,3 km/h (2 Bft)
25.02.21 07:30:00 6,7 °C 6,7 °C 6,8 °C 5,6 °C 5,0 °C 5,6 °C 6,1 °C 94,00% 15 lf 73 cb 1024,8 hPa 0,0 l/m˛ 6,4 km/h (2 Bft) S 180 ° 0 min 0 min 0,000 mm 0,0 UV-I 14 W/m˛ 5,8 °C 6,7 °C 11,3 km/h (2 Bft)
25.02.21 08:00:00 7,2 °C 6,7 °C 7,2 °C 5,6 °C 5,0 °C 5,6 °C 6,1 °C 95,00% 15 lf 72 cb 1024,9 hPa 0,0 l/m˛ 4,8 km/h (1 Bft) S 180 ° 0 min 0 min 0,000 mm 0,0 UV-I 42 W/m˛ 6,5 °C 6,7 °C 9,7 km/h (2 Bft)
25.02.21 08:30:00 7,8 °C 7,2 °C 7,8 °C 6,1 °C 5,0 °C 5,6 °C 6,1 °C 95,00% 15 lf 73 cb 1025,0 hPa 0,0 l/m˛ 4,8 km/h (1 Bft) S 180 ° 30 min 0 min 0,000 mm 0,0 UV-I 76 W/m˛ 7,0 °C 7,2 °C 11,3 km/h (2 Bft)
25.02.21 09:00:00 9,1 °C 7,8 °C 9,1 °C 7,2 °C 5,6 °C 5,6 °C 6,1 °C 94,00% 3 lf 76 cb 1025,0 hPa 0,0 l/m˛ 3,2 km/h (1 Bft) S 180 ° 30 min 0 min 0,051 mm 0,0 UV-I 148 W/m˛ 8,2 °C 7,8 °C 11,3 km/h (2 Bft)
25.02.21 09:30:00 10,8 °C 9,1 °C 10,8 °C 8,9 °C 6,1 °C 6,1 °C 5,6 °C 92,00% 0 lf 76 cb 1025,0 hPa 0,0 l/m˛ 3,2 km/h (1 Bft) S-SW 202 ° 30 min 0 min 0,000 mm 0,0 UV-I 209 W/m˛ 9,6 °C 9,1 °C 11,3 km/h (2 Bft)
25.02.21 10:00:00 12,1 °C 10,8 °C 12,1 °C 10,0 °C 6,1 °C 6,1 °C 5,6 °C 88,00% 0 lf 79 cb 1024,8 hPa 0,0 l/m˛ 6,4 km/h (2 Bft) S-SO 157 ° 30 min 0 min 0,102 mm 0,5 UV-I 258 W/m˛ 10,2 °C 10,8 °C 12,9 km/h (3 Bft)
25.02.21 10:30:00 13,8 °C 12,1 °C 13,8 °C 11,1 °C 7,2 °C 7,2 °C 5,6 °C 82,00% 0 lf 80 cb 1024,6 hPa 0,0 l/m˛ 8,0 km/h (2 Bft) W-SW 247 ° 30 min 0 min 0,000 mm 0,7 UV-I 308 W/m˛ 10,8 °C 11,1 °C 19,3 km/h (3 Bft)
25.02.21 11:00:00 14,3 °C 13,8 °C 14,3 °C 11,7 °C 7,8 °C 7,8 °C 5,6 °C 80,00% 0 lf 79 cb 1024,5 hPa 0,0 l/m˛ 12,9 km/h (3 Bft) W-SW 247 ° 30 min 0 min 0,178 mm 0,8 UV-I 339 W/m˛ 10,9 °C 10,5 °C 22,5 km/h (4 Bft)
25.02.21 11:30:00 15,4 °C 14,4 °C 15,4 °C 12,8 °C 8,3 °C 8,3 °C 5,6 °C 76,00% 0 lf 79 cb 1024,4 hPa 0,0 l/m˛ 12,9 km/h (3 Bft) W-SW 247 ° 30 min 0 min 0,000 mm 0,9 UV-I 371 W/m˛ 11,2 °C 11,2 °C 22,5 km/h (4 Bft)
25.02.21 12:00:00 16,3 °C 15,4 °C 16,3 °C 13,9 °C 9,4 °C 8,9 °C 6,1 °C 73,00% 0 lf 81 cb 1024,2 hPa 0,0 l/m˛ 14,5 km/h (3 Bft) W-SW 247 ° 30 min 0 min 0,229 mm 1,0 UV-I 390 W/m˛ 11,4 °C 11,8 °C 27,4 km/h (5 Bft)
25.02.21 12:30:00 16,6 °C 16,3 °C 16,6 °C 13,9 °C 10,0 °C 9,4 °C 6,1 °C 73,00% 0 lf 80 cb 1024,1 hPa 0,0 l/m˛ 14,5 km/h (3 Bft) W-SW 247 ° 30 min 0 min 0,000 mm 1,0 UV-I 392 W/m˛ 11,7 °C 12,9 °C 24,1 km/h (4 Bft)
25.02.21 13:00:00 16,9 °C 16,6 °C 16,9 °C 14,4 °C 11,1 °C 10,0 °C 6,1 °C 72,00% 0 lf 80 cb 1024,1 hPa 0,0 l/m˛ 16,1 km/h (3 Bft) W 270 ° 30 min 0 min 0,254 mm 1,0 UV-I 392 W/m˛ 11,8 °C 12,8 °C 25,7 km/h (4 Bft)
25.02.21 13:30:00 17,4 °C 16,9 °C 17,4 °C 15,0 °C 11,7 °C 10,6 °C 6,1 °C 71,00% 0 lf 80 cb 1023,8 hPa 0,0 l/m˛ 16,1 km/h (3 Bft) W 270 ° 30 min 0 min 0,000 mm 1,0 UV-I 487 W/m˛ 12,1 °C 13,2 °C 29,0 km/h (5 Bft)
25.02.21 14:00:00 16,8 °C 16,8 °C 17,4 °C 13,9 °C 12,2 °C 11,1 °C 6,1 °C 70,00% 0 lf 78 cb 1023,8 hPa 0,0 l/m˛ 14,5 km/h (3 Bft) W 270 ° 30 min 0 min 0,229 mm 1,0 UV-I 438 W/m˛ 11,3 °C 13,5 °C 25,7 km/h (4 Bft)
25.02.21 14:30:00 17,2 °C 16,7 °C 17,2 °C 14,4 °C 12,2 °C 11,1 °C 6,7 °C 70,00% 0 lf 77 cb 1023,6 hPa 0,0 l/m˛ 14,5 km/h (3 Bft) W 270 ° 30 min 0 min 0,000 mm 0,7 UV-I 380 W/m˛ 11,7 °C 13,4 °C 24,1 km/h (4 Bft)
25.02.21 15:00:00 17,4 °C 17,2 °C 17,4 °C 14,4 °C 12,8 °C 11,1 °C 6,7 °C 69,00% 0 lf 75 cb 1023,5 hPa 0,0 l/m˛ 12,9 km/h (3 Bft) W-SW 247 ° 30 min 0 min 0,203 mm 0,6 UV-I 287 W/m˛ 11,7 °C 14,5 °C 22,5 km/h (4 Bft)
25.02.21 15:30:00 17,1 °C 17,1 °C 17,4 °C 14,4 °C 12,8 °C 11,1 °C 6,7 °C 67,00% 0 lf 75 cb 1023,6 hPa 0,0 l/m˛ 17,7 km/h (3 Bft) W-SW 247 ° 30 min 0 min 0,000 mm 0,5 UV-I 251 W/m˛ 10,9 °C 13,0 °C 30,6 km/h (5 Bft)
25.02.21 16:00:00 16,6 °C 16,3 °C 17,1 °C 15,0 °C 12,2 °C 11,1 °C 7,2 °C 67,00% 0 lf 75 cb 1023,7 hPa 0,0 l/m˛ 17,7 km/h (3 Bft) W 270 ° 30 min 0 min 0,178 mm 0,0 UV-I 178 W/m˛ 10,4 °C 12,0 °C 30,6 km/h (5 Bft)
25.02.21 16:30:00 16,3 °C 16,3 °C 16,7 °C 13,9 °C 11,7 °C 11,1 °C 7,2 °C 66,00% 0 lf 74 cb 1023,8 hPa 0,0 l/m˛ 16,1 km/h (3 Bft) W-SW 247 ° 30 min 0 min 0,000 mm 0,0 UV-I 176 W/m˛ 9,9 °C 12,4 °C 32,2 km/h (5 Bft)
25.02.21 17:00:00 15,2 °C 15,2 °C 16,3 °C 12,2 °C 11,1 °C 10,6 °C 7,2 °C 70,00% 0 lf 72 cb 1024,1 hPa 0,0 l/m˛ 12,9 km/h (3 Bft) W 270 ° 30 min 0 min 0,102 mm 0,0 UV-I 88 W/m˛ 9,8 °C 12,2 °C 24,1 km/h (4 Bft)
25.02.21 17:30:00 13,7 °C 13,7 °C 15,2 °C 11,1 °C 10,6 °C 10,6 °C 7,2 °C 74,00% 0 lf 70 cb 1024,1 hPa 0,0 l/m˛ 9,7 km/h (2 Bft) W 270 ° 0 min 0 min 0,000 mm 0,0 UV-I 15 W/m˛ 9,2 °C 11,8 °C 22,5 km/h (4 Bft)
25.02.21 18:00:00 12,3 °C 12,3 °C 13,7 °C 10,0 °C 10,0 °C 10,0 °C 7,8 °C 77,00% 0 lf 70 cb 1024,4 hPa 0,0 l/m˛ 6,4 km/h (2 Bft) W-SW 247 ° 0 min 0 min 0,000 mm 0,0 UV-I 0 W/m˛ 8,4 °C 12,3 °C 9,7 km/h (2 Bft)
25.02.21 18:30:00 11,6 °C 11,5 °C 12,3 °C 9,4 °C 9,4 °C 9,4 °C 7,8 °C 79,00% 0 lf 69 cb 1024,9 hPa 0,0 l/m˛ 8,0 km/h (2 Bft) W 270 ° 0 min 0 min 0,000 mm 0,0 UV-I 0 W/m˛ 8,1 °C 10,4 °C 14,5 km/h (3 Bft)
25.02.21 19:00:00 10,3 °C 10,3 °C 11,5 °C 8,9 °C 9,4 °C 9,4 °C 7,8 °C 84,00% 0 lf 68 cb 1025,4 hPa 0,0 l/m˛ 8,0 km/h (2 Bft) NW 315 ° 0 min 0 min 0,025 mm 0,0 UV-I 0 W/m˛ 7,7 °C 9,2 °C 20,9 km/h (4 Bft)
25.02.21 19:30:00 10,4 °C 10,3 °C 10,4 °C 8,9 °C 8,9 °C 8,9 °C 7,8 °C 87,00% 0 lf 69 cb 1025,6 hPa 0,0 l/m˛ 11,3 km/h (2 Bft) W-NW 292 ° 0 min 0 min 0,000 mm 0,0 UV-I 0 W/m˛ 8,3 °C 7,2 °C 17,7 km/h (3 Bft)
25.02.21 20:00:00 10,3 °C 10,3 °C 10,5 °C 8,9 °C 8,9 °C 8,9 °C 7,8 °C 87,00% 0 lf 68 cb 1025,7 hPa 0,0 l/m˛ 9,7 km/h (2 Bft) W-NW 292 ° 0 min 0 min 0,025 mm 0,0 UV-I 0 W/m˛ 8,2 °C 8,1 °C 16,1 km/h (3 Bft)
25.02.21 20:30:00 10,5 °C 10,2 °C 10,5 °C 9,4 °C 8,9 °C 8,9 °C 7,8 °C 88,00% 0 lf 70 cb 1025,9 hPa 0,0 l/m˛ 11,3 km/h (2 Bft) W 270 ° 0 min 0 min 0,000 mm 0,0 UV-I 0 W/m˛ 8,6 °C 7,1 °C 17,7 km/h (3 Bft)
25.02.21 21:00:00 10,7 °C 10,4 °C 10,7 °C 9,4 °C 8,9 °C 8,3 °C 7,8 °C 87,00% 0 lf 70 cb 1026,1 hPa 0,0 l/m˛ 12,9 km/h (3 Bft) W-NW 292 ° 0 min 0 min 0,025 mm 0,0 UV-I 0 W/m˛ 8,6 °C 6,5 °C 19,3 km/h (3 Bft)
25.02.21 21:30:00 10,2 °C 10,2 °C 10,7 °C 8,9 °C 8,3 °C 8,3 °C 7,8 °C 88,00% 0 lf 71 cb 1026,5 hPa 0,0 l/m˛ 12,9 km/h (3 Bft) W-NW 292 ° 0 min 0 min 0,000 mm 0,0 UV-I 0 W/m˛ 8,3 °C 6,3 °C 19,3 km/h (3 Bft)
25.02.21 22:00:00 9,8 °C 9,8 °C 10,2 °C 8,3 °C 8,3 °C 8,3 °C 7,8 °C 89,00% 0 lf 71 cb 1026,7 hPa 0,0 l/m˛ 11,3 km/h (2 Bft) W-NW 292 ° 0 min 0 min 0,025 mm 0,0 UV-I 0 W/m˛ 8,1 °C 6,6 °C 17,7 km/h (3 Bft)
25.02.21 22:30:00 8,6 °C 8,6 °C 9,8 °C 7,8 °C 8,3 °C 8,3 °C 7,2 °C 90,00% 1 lf 70 cb 1026,9 hPa 0,0 l/m˛ 8,0 km/h (2 Bft) W-NW 292 ° 0 min 0 min 0,000 mm 0,0 UV-I 0 W/m˛ 7,1 °C 7,4 °C 12,9 km/h (3 Bft)
25.02.21 23:00:00 7,9 °C 7,9 °C 8,6 °C 7,8 °C 7,8 °C 7,8 °C 7,2 °C 91,00% 1 lf 69 cb 1026,8 hPa 0,0 l/m˛ 4,8 km/h (1 Bft) NW 315 ° 0 min 0 min 0,000 mm 0,0 UV-I 0 W/m˛ 6,5 °C 7,9 °C 8,0 km/h (2 Bft)
25.02.21 23:30:00 7,8 °C 7,7 °C 7,9 °C 7,8 °C 7,8 °C 7,8 °C 7,2 °C 92,00% 1 lf 71 cb 1026,8 hPa 0,0 l/m˛ 6,4 km/h (2 Bft) W-NW 292 ° 0 min 0 min 0,000 mm 0,0 UV-I 0 W/m˛ 6,6 °C 7,7 °C 9,7 km/h (2 Bft)

                                                                                                                                                                            _________________________________________________________________________________________________________________________________________________________________________

 Anomalie Daten

ausgewähltes Produkt zur Leistung: Zeitreihen und Trends
 
ausgewähltes Produkt zur Leistung:

 

 

ausgewähltes Produkt zur Leistung: Zeitreihen und Trends

Absolut Daten

ausgewähltes Produkt zur Leistung: Zeitreihen und Trends
ausgewähltes Produkt zur Leistung: Zeitreihen und Trends

 

ausgewähltes Produkt zur Leistung: Zeitreihen und Trends

 

2009 - 2021

Unwetterwarnungen

 

  Radarbild           

aktueller Radarfilm Deutschland

  Europa-Meteoalarm